Location: Newark
(44.2003°N, 3.2583°E)
Time: 10:01:51
(UTC+00:00)

Explorer 7 - Pass Details

Date: 22 October 2019
Orbit: 485 x 680 km, 50.3° (Epoch: 14 November)

Event Time Altitude Azimuth Distance (km) Brightness Sun altitude
Rises 10:07:51 0° 225° (SW) 2,568 10.5 31.6°
Reaches altitude 10° 10:10:05 10° 220° (SW) 1,674 9.7 31.8°
Maximum altitude 10:13:43 48° 145° (SE) 637 8.9 32.0°
Drops below altitude 10° 10:17:21 10° 70° (ENE) 1,669 9.4 32.3°
Sets 10:19:34 0° 65° (ENE) 2,559 10.2 32.4°
